Location: Ajisawe
(8.4333°N, 4.3833°E)
Time: 01:02:43
(UTC+00:00)

Tiros 1 - All Passes

Search period start: 19 April 2021 00:00
Search period end: 29 April 2021 00:00
Orbit: 630 x 663 km, 48.4° (Epoch: 18 April)

Date Brightness Start Highest point End Pass type
(mag) Time Alt. Az. Time Alt. Az. Time Alt. Az.
19 Apr - 05:50:39 10° S 05:54:37 27° SE 05:58:33 10° ENE daylight
19 Apr - 07:32:49 10° WSW 07:36:39 25° NW 07:40:27 10° N daylight
19 Apr - 16:18:36 10° N 16:21:32 16° NE 16:24:27 10° E daylight
19 Apr - 17:59:17 10° WNW 18:03:38 40° SW 18:08:03 10° SSE daylight
20 Apr - 06:15:45 10° SW 06:20:29 89° SE 06:25:11 10° NE daylight
20 Apr - 16:43:03 10° NNW 16:47:33 50° NE 16:52:05 10° SE daylight
20 Apr - 18:27:30 10° WSW 18:29:30 13° SW 18:31:31 10° SSW visible
21 Apr - 05:00:37 10° S 05:04:25 24° SE 05:08:10 10° ENE visible
21 Apr - 06:42:24 10° WSW 06:46:25 28° NW 06:50:25 10° N daylight
21 Apr - 15:28:45 10° NNE 15:31:18 14° NE 15:33:51 10° E daylight
21 Apr - 17:09:00 10° NW 17:13:26 46° SW 17:17:55 10° SSE daylight
22 Apr - 05:25:32 10° SW 05:30:17 79° SE 05:34:58 10° NE daylight
22 Apr - 15:52:56 10° NNW 15:57:20 44° NE 16:01:47 10° ESE daylight
22 Apr - 17:36:49 10° W 17:39:18 14° SW 17:41:49 10° SSW daylight
23 Apr - 04:10:37 10° S 04:14:12 21° SE 04:17:44 10° E visible
23 Apr - 05:52:00 10° WSW 05:56:12 31° NW 06:00:22 10° NNE daylight
23 Apr - 14:39:00 10° NNE 14:41:04 13° NE 14:43:08 10° ENE daylight
23 Apr - 16:18:44 10° NW 16:23:14 53° SW 16:27:46 10° SSE daylight
24 Apr - 04:35:20 10° SSW 04:40:03 69° SE 04:44:45 10° NE visible
24 Apr - 06:21:27 10° NW 06:22:19 10° NW 06:23:10 10° NW daylight
24 Apr - 15:02:50 10° NNW 15:07:07 38° NE 15:11:27 10° ESE daylight
24 Apr - 16:46:13 10° W 16:49:06 16° SW 16:51:59 10° SSW daylight
25 Apr - 03:20:40 10° S 03:23:59 19° SE 03:27:16 10° E visible
25 Apr - 05:01:38 10° WSW 05:05:58 35° NW 05:10:17 10° NNE visible
25 Apr - 13:49:26 10° NNE 13:50:49 11° NE 13:52:13 10° ENE daylight
25 Apr - 15:28:28 10° NW 15:33:01 61° SW 15:37:36 10° SSE daylight
26 Apr - 03:45:08 10° SSW 03:49:51 60° SE 03:54:30 10° NE visible
26 Apr - 05:30:15 10° WNW 05:32:04 12° NW 05:33:52 10° NNW daylight
26 Apr - 14:12:44 10° NNW 14:16:55 34° NE 14:21:07 10° ESE daylight
26 Apr - 15:55:42 10° W 15:58:53 18° SW 16:02:05 10° S daylight
27 Apr - 02:30:46 10° SSE 02:33:45 16° SE 02:36:45 10° E visible
27 Apr - 04:11:16 10° WSW 04:15:45 40° NW 04:20:11 10° NNE visible
27 Apr - 14:38:15 10° NW 14:42:49 70° SW 14:47:26 10° SSE daylight
28 Apr - 02:54:58 10° SSW 02:59:38 53° SE 03:04:14 10° NE visible
28 Apr - 04:39:26 10° WNW 04:41:48 14° NW 04:44:10 10° NNW visible
28 Apr - 13:22:39 10° NNW 13:26:42 30° NE 13:30:44 10° ESE daylight
28 Apr - 15:05:14 10° W 15:08:41 21° SW 15:12:09 10° S daylight
